STARLINK-1699

Last updated on Fri Nov 06 2020 00:02:03 GMT+0000 (Coordinated Universal Time)

1 46548U 20070S 20310.83334491 -.01087275 00000-0 -19328-1 0 9993 2 46548 53.0022 293.1720 0001155 64.6769 307.1950 15.52391015 5580

Satellite not in orbit